Location: Hains Lake
(37.8540°N, 99.8578°W)
Time: 08:03:20
(UTC+00:00)

Vanguard 1 - Pass Details

Date: 23 April 2021
Orbit: 649 x 3834 km, 34.2° (Epoch: 04 May)

Event Time Altitude Azimuth Distance (km) Brightness Sun altitude
Rises 04:51:36 0° 278° (W) 7,977 15.2 -33.7°
Reaches altitude 10° 05:03:40 10° 253° (WSW) 6,742 14.4 -34.9°
Maximum altitude 05:09:20 12° 237° (WSW) 6,350 14.1 -35.4°
Drops below altitude 10° 05:14:38 10° 221° (SW) 6,160 13.9 -35.9°
Enters shadow 05:17:37 - 212° (SSW) 6,145 13.8 -36.1°
